Location: Milton Keynes
(52.0316°N, 0.7531°W)
Time: 11:06:44
(UTC+01:00)

Envisat - Pass Details

Date: 26 January 2019
Orbit: 764 x 766 km, 98.1° (Epoch: 15 October)

Event Time Altitude Azimuth Distance (km) Brightness Sun altitude
Rises 19:20:47 0° 188° (S) 3,222 6.3 -24.6°
Reaches altitude 10° 19:23:14 10° 196° (SSW) 2,300 5.6 -24.9°
Maximum altitude 19:27:56 38° 264° (W) 1,169 4.4 -25.7°
Drops below altitude 10° 19:32:40 10° 332° (NNW) 2,316 5.8 -26.4°
Sets 19:35:09 0° 341° (NNW) 3,247 6.5 -26.8°
